• In Hungary
  • List of Countries
  • For 7 days
  • Water Temperature
  • Satellite Maps
  • Weather Map
  • News
  • Weather Widgets
  • user-avatar
    Login

    Hourly Weather Kurkak

    Today, 24 September, Monday

    Time Temperature Precipitation Wind Pressure Humidity
    00:00 +16°C° 0 mm 2 mps 685 mmHg 74%
    01:00 +15°C° 0 mm 2 mps 685 mmHg 72%
    02:00 +15°C° 0 mm 2 mps 685 mmHg 70%
    03:00 +15°C° 0 mm 2 mps 685 mmHg 68%
    04:00 +15°C° 0 mm 2 mps 685 mmHg 66%
    05:00 +15°C° 0 mm 2 mps 685 mmHg 64%
    06:00 +15°C° 0 mm 2 mps 685 mmHg 62%
    07:00 +17°C° 0 mm 2 mps 686 mmHg 58%
    08:00 +19°C° 0 mm 2 mps 686 mmHg 53%
    09:00 +21°C° 0 mm 2 mps 687 mmHg 48%
    10:00 +23°C° 0 mm 2 mps 687 mmHg 47%
    11:00 +22°C° 0 mm 3 mps 687 mmHg 46%
    12:00 +24°C° 0 mm 3 mps 687 mmHg 45%
    13:00 +24°C° 0 mm 3 mps 687 mmHg 47%
    14:00 +22°C° 0 mm 3 mps 687 mmHg 49%
    15:00 +23°C° 0 mm 2 mps 687 mmHg 51%
    16:00 +20°C° 0 mm 2 mps 687 mmHg 58%
    17:00 +19°C° 0 mm 2 mps 686 mmHg 66%
    18:00 +18°C° 0 mm 1 mps 686 mmHg 73%
    19:00 +18°C° 0 mm 1 mps 686 mmHg 73%
    20:00 +17°C° 0 mm 2 mps 686 mmHg 72%
    21:00 +16°C° 0 mm 2 mps 686 mmHg 72%
    22:00 +16°C° 0 mm 2 mps 686 mmHg 71%
    23:00 +16°C° 0 mm 2 mps 686 mmHg 71%

    Tomorrow, 25 September, Tuesday

    Time Temperature Precipitation Wind Pressure Humidity
    00:00 +16°C° 0 mm 2 mps 685 mmHg 70%
    01:00 +16°C° 0 mm 2 mps 685 mmHg 68%
    02:00 +16°C° 0 mm 3 mps 685 mmHg 67%
    03:00 +16°C° 0 mm 3 mps 684 mmHg 65%
    04:00 +16°C° 0 mm 3 mps 684 mmHg 64%
    05:00 +16°C° 0 mm 3 mps 684 mmHg 62%
    06:00 +16°C° 0 mm 3 mps 684 mmHg 61%
    07:00 +18°C° 0 mm 3 mps 684 mmHg 54%
    08:00 +21°C° 0 mm 3 mps 684 mmHg 47%
    09:00 +25°C° 0 mm 3 mps 684 mmHg 40%
    10:00 +26°C° 0 mm 3 mps 684 mmHg 39%
    11:00 +27°C° 0 mm 3 mps 684 mmHg 38%
    12:00 +28°C° 0 mm 3 mps 684 mmHg 37%
    13:00 +28°C° 0 mm 3 mps 683 mmHg 38%
    14:00 +27°C° 0 mm 3 mps 683 mmHg 40%
    15:00 +27°C° 0 mm 3 mps 682 mmHg 41%
    16:00 +25°C° 0 mm 3 mps 682 mmHg 50%
    17:00 +23°C° 0 mm 2 mps 682 mmHg 59%
    18:00 +20°C° 0 mm 1 mps 682 mmHg 68%
    19:00 +19°C° 0 mm 2 mps 682 mmHg 67%
    20:00 +19°C° 0 mm 2 mps 682 mmHg 67%
    21:00 +19°C° 0 mm 2 mps 683 mmHg 66%
    22:00 +19°C° 0 mm 2 mps 683 mmHg 67%
    23:00 +18°C° 0 mm 2 mps 683 mmHg 68%

    Day after tomorrow, 26 September, Wednesday

    Time Temperature Precipitation Wind Pressure Humidity
    00:00 +18°C° 0 mm 2 mps 683 mmHg 68%
    01:00 +18°C° 0 mm 2 mps 683 mmHg 71%
    02:00 +17°C° 0 mm 2 mps 683 mmHg 74%
    03:00 +17°C° 0 mm 3 mps 684 mmHg 76%
    04:00 +16°C° 0 mm 3 mps 684 mmHg 81%
    05:00 +15°C° 0 mm 4 mps 684 mmHg 85%
    06:00 +14°C° 0 mm 4 mps 685 mmHg 89%
    07:00 +15°C° 0 mm 5 mps 685 mmHg 84%
    08:00 +16°C° 0 mm 5 mps 686 mmHg 78%
    09:00 +17°C° 0 mm 6 mps 687 mmHg 73%
    10:00 +16°C° 0 mm 6 mps 687 mmHg 73%
    11:00 +16°C° 0 mm 6 mps 687 mmHg 74%
    12:00 +16°C° 0 mm 5 mps 687 mmHg 74%
    13:00 +15°C° 0 mm 5 mps 687 mmHg 73%
    14:00 +15°C° 0 mm 5 mps 687 mmHg 73%
    15:00 +15°C° 0 mm 5 mps 687 mmHg 73%
    16:00 +14°C° 0 mm 5 mps 687 mmHg 77%
    17:00 +13°C° 0 mm 4 mps 687 mmHg 80%
    18:00 +12°C° 0 mm 4 mps 688 mmHg 84%
    19:00 +12°C° 0 mm 3 mps 688 mmHg 85%
    20:00 +11°C° 0 mm 3 mps 688 mmHg 85%
    21:00 +11°C° 0 mm 3 mps 688 mmHg 86%
    22:00 +11°C° 0 mm 3 mps 688 mmHg 86%
    23:00 +12°C° 0 mm 2 mps 688 mmHg 86%

    27 September, Thursday

    Time Temperature Precipitation Wind Pressure Humidity
    00:00 +10°C° 0 mm 2 mps 688 mmHg 86%
    01:00 +10°C° 0 mm 2 mps 688 mmHg 86%
    02:00 +10°C° 0 mm 2 mps 688 mmHg 86%
    03:00 +10°C° 0 mm 2 mps 688 mmHg 86%
    04:00 +10°C° 0 mm 2 mps 688 mmHg 85%
    05:00 +10°C° 0 mm 2 mps 688 mmHg 85%
    06:00 +10°C° 0 mm 2 mps 688 mmHg 85%
    07:00 +13°C° 0 mm 2 mps 689 mmHg 79%
    08:00 +13°C° 0 mm 3 mps 689 mmHg 73%
    09:00 +16°C° 0 mm 3 mps 690 mmHg 66%
    10:00 +16°C° 0 mm 3 mps 690 mmHg 65%
    11:00 +17°C° 0 mm 4 mps 690 mmHg 63%
    12:00 +18°C° 0 mm 4 mps 690 mmHg 61%
    13:00 +17°C° 0 mm 4 mps 689 mmHg 63%
    14:00 +15°C° 0 mm 4 mps 689 mmHg 64%
    15:00 +15°C° 0 mm 4 mps 689 mmHg 66%
    16:00 +14°C° 0 mm 3 mps 689 mmHg 71%
    17:00 +13°C° 0 mm 2 mps 689 mmHg 76%
    18:00 +12°C° 0 mm 1 mps 689 mmHg 82%
    19:00 +12°C° 0 mm 1 mps 689 mmHg 82%
    20:00 +12°C° 0 mm 1 mps 690 mmHg 82%
    21:00 +12°C° 0 mm 1 mps 690 mmHg 82%
    22:00 +11°C° 0 mm 1 mps 690 mmHg 82%
    23:00 +11°C° 0 mm 1 mps 690 mmHg 82%

    28 September, Friday

    Time Temperature Precipitation Wind Pressure Humidity
    00:00 +11°C° 0 mm 1 mps 689 mmHg 82%
    01:00 +11°C° 0 mm 1 mps 689 mmHg 81%
    02:00 +11°C° 0 mm 1 mps 689 mmHg 79%
    03:00 +11°C° 0 mm 1 mps 689 mmHg 78%
    04:00 +11°C° 0 mm 1 mps 689 mmHg 77%
    05:00 +11°C° 0 mm 1 mps 689 mmHg 75%
    06:00 +11°C° 0 mm 1 mps 689 mmHg 74%
    07:00 +13°C° 0 mm 2 mps 690 mmHg 68%
    08:00 +15°C° 0 mm 2 mps 690 mmHg 62%
    09:00 +18°C° 0 mm 3 mps 691 mmHg 55%
    10:00 +18°C° 0 mm 3 mps 691 mmHg 55%
    11:00 +19°C° 0 mm 4 mps 690 mmHg 54%
    12:00 +20°C° 0 mm 4 mps 690 mmHg 53%
    13:00 +20°C° 0 mm 5 mps 690 mmHg 55%
    14:00 +20°C° 0 mm 5 mps 689 mmHg 57%
    15:00 +20°C° 0 mm 5 mps 689 mmHg 59%
    16:00 +18°C° 0 mm 4 mps 689 mmHg 67%
    17:00 +15°C° 0 mm 4 mps 688 mmHg 75%
    18:00 +14°C° 0 mm 3 mps 688 mmHg 83%
    19:00 +14°C° 0 mm 3 mps 688 mmHg 81%
    20:00 +14°C° 0 mm 3 mps 688 mmHg 79%
    21:00 +13°C° 0 mm 3 mps 688 mmHg 77%
    22:00 +13°C° 0 mm 3 mps 687 mmHg 75%
    23:00 +13°C° 0 mm 3 mps 687 mmHg 74%

    29 September, Saturday

    Time Temperature Precipitation Wind Pressure Humidity
    00:00 +13°C° 0 mm 3 mps 687 mmHg 72%
    01:00 +13°C° 0 mm 3 mps 687 mmHg 70%
    02:00 +14°C° 0 mm 2 mps 686 mmHg 68%
    03:00 +14°C° 0 mm 2 mps 686 mmHg 67%
    04:00 +14°C° 0 mm 2 mps 686 mmHg 64%
    05:00 +14°C° 0 mm 2 mps 686 mmHg 62%
    06:00 +14°C° 0 mm 2 mps 686 mmHg 60%
    07:00 +16°C° 0 mm 2 mps 686 mmHg 55%
    08:00 +19°C° 0 mm 2 mps 687 mmHg 50%
    09:00 +21°C° 0 mm 2 mps 687 mmHg 45%
    10:00 +23°C° 0 mm 2 mps 687 mmHg 45%
    11:00 +24°C° 0 mm 3 mps 687 mmHg 46%
    12:00 +24°C° 0 mm 3 mps 687 mmHg 46%
    13:00 +24°C° 0 mm 3 mps 686 mmHg 49%
    14:00 +24°C° 0 mm 3 mps 686 mmHg 52%
    15:00 +24°C° 0 mm 3 mps 685 mmHg 55%
    16:00 +21°C° 0 mm 3 mps 685 mmHg 65%
    17:00 +19°C° 0 mm 2 mps 685 mmHg 74%
    18:00 +17°C° 0 mm 2 mps 685 mmHg 84%
    19:00 +17°C° 0 mm 2 mps 685 mmHg 81%
    20:00 +17°C° 0 mm 2 mps 685 mmHg 79%
    21:00 +17°C° 0 mm 2 mps 685 mmHg 76%
    22:00 +17°C° 0 mm 2 mps 685 mmHg 73%
    23:00 +16°C° 0 mm 2 mps 684 mmHg 69%
    Show more